Regional Weather Roundup
Issued by NWS

Home | Current Version | Previous Version | Graphics & Text | Print | Product List | Glossary On
Versions: 1 2 3 4 5 6 7 8 9 10 11 12 13 14 15 16 17 18 19 20 21 22 23 24 25 26 27 28 29 30 31 32 33 34 35 36 37 38 39 40 41 42 43 44 45 46 47 48 49 50
000
ASUS43 KLOT 250708
RWRIL

ILLINOIS REGIONAL WEATHER ROUNDUP
NATIONAL WEATHER SERVICE CHICAGO/ROMEOVILLE IL
200 AM CDT FRI MAY 25 2018

NOTE: "FAIR" INDICATES FEW OR NO CLOUDS BELOW 12,000 FEET WITH NO
SIGNIFICANT WEATHER AND/OR OBSTRUCTIONS TO VISIBILITY.

* THESE STATIONS ARE NOT UNDER NWS QUALITY CONTROL. THEY ALSO MAY NOT
  REPORT WEATHER SUCH AS PRECIPITATION OR FOG.

ILZ001-002-007-009-015-016-024-250800-
NORTHWEST ILLINOIS

CITY           SKY/WX    TMP DP  RH WIND       PRES   REMARKS
MOLINE         FAIR      66  60  81 CALM      29.97F
STERLING*        N/A    N/A N/A N/A MISG        N/A
SAVANNA*       FAIR      67  61  81 CALM      29.98F
$$

ILZ003-004-008-010-011-017-018-250800-
NORTH CENTRAL ILLINOIS

CITY           SKY/WX    TMP DP  RH WIND       PRES   REMARKS
ROCKFORD       FAIR      67  56  67 S3        30.00F
FREEPORT*      FAIR      67  58  72 CALM      30.00F
ROCHELLE*      FAIR      64  58  82 CALM      30.00F
DE KALB*       FAIR      67  55  66 S8        30.01F
PERU*          FAIR      72  59  64 S7        30.00F
$$

ILZ005-006-012>014-019>023-250800-
NORTHEAST ILLINOIS

CITY           SKY/WX    TMP DP  RH WIND       PRES   REMARKS
CHICAGO-OHARE  FAIR      69  52  54 S5        30.00F
CHICAGO-MIDWAY FAIR      71  51  49 S5        30.00F
AURORA         FAIR      66  54  65 CALM      30.00F
LANSING*       FAIR      66  52  62 CALM      30.02F
JOLIET*        FAIR      63  56  78 CALM      30.01F
WAUKEGAN       FAIR      61  54  77 SW6       29.99F
DUPAGE AIRPORT FAIR      64  57  78 SE3       30.00F
KANKAKEE*      FAIR      68  50  53 S6        30.03F
WHEELING       FAIR      66  57  72 CALM      30.01F
MORRIS*        FAIR      68  53  59 S6        30.00F
ROMEOVILLE*    FAIR      66  52  61 S7        30.01F
NORTHERLY ISL    N/A     72  46  39 S6          N/A
$$

LMZ740>746-250800-
SOUTHERN LAKE MICHIGAN

STATION/POSITION SKY/WX   TEMP    WIND        PRES    VSBY  WAVE
                          AIR SEA DIR/SP/G                  HT/PER
                          (F)     (DEG/KT/KT) (MB)    (MI)  (FT/S)
SOUTHERN BUOY              51 39  170/ 10/ 10 1016.1F         0
WILMETTE HARBOR            60 55  170/  6/  6   N/A           0
HARRISON CRIB              75     200/ 13/ 13   N/A
BURNHAM HARBOR             72     180/  6/  9   N/A
CALUMET HARBOR                    170/  5/  7 1015.8F
BURNS HARBOR               70     180/  4/  8 1016.9F
MICHIGAN CITY              72     140/ 11/ 14   N/A
MICHIGAN CITY 6N           64 60  190/  4/  4   N/A           0
ST. JOSEPH                 62 57  200/  4/  6 1016.5F         0
$$

ILZ025>027-034>036-040-047-049-050-058-095>099-250800-
WEST-CENTRAL ILLINOIS

CITY           SKY/WX    TMP DP  RH WIND       PRES   REMARKS
QUINCY         PTCLDY    71  61  70 SE7       29.99F
GALESBURG*     FAIR      66  59  78 CALM      30.00F
MACOMB*        PTCLDY    69  61  75 S7        30.01F
JACKSONVILLE*  CLEAR     72  59  64 S5        30.01F
PITTSFIELD*    CLOUDY    69  64  82 SE3       30.02S
$$

ILZ028>032-037-038-041>044-048-051>054-059>061-250800-
CENTRAL ILLINOIS

CITY           SKY/WX    TMP DP  RH WIND       PRES   REMARKS
PONTIAC        FAIR      68  55  63 SE5       30.02F
BLOOMINGTON    FAIR      66  54  65 S6        30.04S
DECATUR        FAIR      67  55  65 S3        30.02F
PEORIA         FAIR      68  61  78 CALM      30.01S
LACON*         FAIR      69  59  70 SE5       29.99F
LINCOLN*       FAIR      70  58  65 CALM      30.02S
SPRINGFIELD    FAIR      67  60  78 SE6       30.01F
TAYLORVILLE    FAIR      66  58  74 S6        30.02F
$$

ILZ033-039-045-046-055>057-062-063-250800-
EAST-CENTRAL ILLINOIS

CITY           SKY/WX    TMP DP  RH WIND       PRES   REMARKS
CHAMPAIGN      FAIR      69  55  60 S9        30.03F
DANVILLE*      FAIR      64  55  70 CALM      30.02F
RANTOUL*       FAIR      68  56  66 CALM      30.04F
PARIS*         FAIR      63  56  80 CALM      30.05F
$$

ILZ079-100>102-250800-
SOUTHWEST ILLINOIS

CITY           SKY/WX    TMP DP  RH WIND       PRES   REMARKS
ALTON          CLEAR     64  64  97 CALM      30.01F
BELLEVILLE     CLEAR     67  63  87 CALM      30.00F
CAHOKIA*       PTCLDY    69  62  78 CALM      30.00F
SPARTA*        CLEAR     67  67  99 CALM      30.03F
$$

ILZ064>066-069>071-074>076-080>082-084>086-088>090-092>094-250800-
SOUTH-CENTRAL ILLINOIS

CITY           SKY/WX    TMP DP  RH WIND       PRES   REMARKS
CARBONDALE     FAIR      66  63  90 CALM      30.02F
CAIRO*         FAIR      70  69  96 CALM      30.01F
EFFINGHAM*     FAIR      63  57  81 CALM      30.05F
MARION         FAIR      66  62  86 CALM      30.03F
MT. VERNON     FAIR      58  57  97 CALM      30.03F
CENTRALIA*     CLEAR     66  63  89 CALM      30.02F
SALEM*         FAIR      68  58  72 CALM      30.03F
METROPOLIS*    FAIR      67  65  94 CALM      30.02F
$$

ILZ067-068-072-073-078-083-087-091-250800-
SOUTHEAST ILLINOIS

CITY           SKY/WX    TMP DP  RH WIND       PRES   REMARKS
LAWRENCEVILLE  FAIR      66  58  75 CALM      30.03F
FLORA*         FAIR      66  58  76 CALM      30.03F
FAIRFIELD*     FAIR      63  59  86 CALM      30.02F
HARRISBURG*    FAIR      64  63  94 CALM      30.03F
ROBINSON*      FAIR      61  58  90 CALM      30.05F
CARMI*         FAIR      63  61  91 CALM      30.02F
$$

ABBREVIATIONS USED IN REMARKS
   TC - TEMPERATURE IN CELSIUS
  WCI - WIND CHILL INDEX
   HX - HEAT INDEX
  VSB - VISIBILITY
$$





USA.gov is the U.S. government's official web portal to all federal, state and local government web resources and services.